Regional Weather Roundup
Issued by NWS

Home | Current Version | Previous Version | Graphics & Text | Print | Product List | Glossary On
Versions: 1 2 3 4 5 6 7 8 9 10 11 12 13 14 15 16 17 18 19 20 21 22 23 24 25 26 27 28 29 30 31 32 33 34 35 36 37 38 39 40 41 42 43 44 45 46 47 48 49 50
000
ASUS43 KOAX 020002
RWRNE

WEATHER ROUNDUP FOR NEBRASKA
NATIONAL WEATHER SERVICE OMAHA NE
700 PM CDT WED OCT 01 2014

NOTES: SATELLITE DATA IS BEING USED TO AUGMENT CLOUD COVER ABOVE
       12000 FEET.
       "FAIR" INDICATES FEW OR NO CLOUDS BELOW 12,000 FEET WITH NO
       SIGNIFICANT WEATHER AND/OR OBSTRUCTIONS TO VISIBILITY.

  * THESE STATIONS DO NOT REPORT WEATHER SUCH AS RAIN...SNOW OR FOG.

NEZ001>004-019>022-054>056-020100-
NEBRASKA PANHANDLE

CITY           SKY/WX    TMP DP  RH WIND       PRES   REMARKS
SCOTTSBLUFF    CLOUDY    54  43  66 NW25G32   29.94R
6HR MIN TEMP:  54; 6HR MAX TEMP:  67;

ALLIANCE       LGT RAIN  52  48  86 NW15G25   29.90R FOG
6HR MIN TEMP:  52; 6HR MAX TEMP:  66; 6HR PCP:  0.02;

CHADRON        CLOUDY    53  46  77 N7        29.94R
6HR MIN TEMP:  53; 6HR MAX TEMP:  63;

KIMBALL        RAIN      46  43  91 NW16G22   29.96R
SIDNEY         RAIN      52  47  83 NW25G38   29.92R
6HR MIN TEMP:  52; 6HR MAX TEMP:  68; 6HR PCP:  0.02;

$$

NEZ057>060-069>072-079>082-020100-
SOUTHWEST NEBRASKA

CITY           SKY/WX    TMP DP  RH WIND       PRES   REMARKS
NORTH PLATTE   PTCLDY    68  49  50 E5        29.77S
6HR MIN TEMP:  68; 6HR MAX TEMP:  76;

IMPERIAL       PTCLDY    71  42  35 E6        29.79R
6HR MIN TEMP:  68; 6HR MAX TEMP:  75;

LEXINGTON      PTCLDY    70  56  60 NE5       29.77R
MCCOOK         CLEAR     75  43  31 CALM      29.76R
6HR MIN TEMP:  73; 6HR MAX TEMP:  79;

OGALLALA       MOCLDY    67  49  52 N3        29.79R
$$

NEZ005>010-023>029-035>040-094-020100-
NORTH CENTRAL NEBRASKA

CITY           SKY/WX    TMP DP  RH WIND       PRES   REMARKS
VALENTINE      PTCLDY    63  46  54 N10       29.85R
6HR MIN TEMP:  63; 6HR MAX TEMP:  72;

AINSWORTH      CLEAR     62  47  58 N8        29.83R
BROKEN BOW     CLOUDY    71  49  45 NE9       29.78R
6HR MIN TEMP:  71; 6HR MAX TEMP:  78;

O`NEILL        MOCLDY    67  53  62 N6        29.81R
ORD            PTCLDY    68  51  54 NE6       29.77R
6HR MIN TEMP:  68; 6HR MAX TEMP:  77;

THEDFORD       MOCLDY    68  49  49 NE10      29.82R
$$

NEZ041-046>049-061>064-073>077-083>087-020100-
SOUTH CENTRAL NEBRASKA

CITY           SKY/WX    TMP DP  RH WIND       PRES   REMARKS
GRAND ISLAND   CLEAR     71  56  58 N7        29.76R
6HR MIN TEMP:  71; 6HR MAX TEMP:  80;

AURORA         PTCLDY    73  55  51 NE6       29.74F
HASTINGS       PTCLDY    73  55  53 E8        29.75R
6HR MIN TEMP:  73; 6HR MAX TEMP:  79;

HEBRON         PTCLDY    73  59  62 CALM      29.73S
HOLDREGE       PTCLDY    70  55  57 CALM      29.76R
KEARNEY *      PTCLDY    72  55  56 N8        29.76S
YORK           MOCLDY    72  59  64 NE8       29.74S
$$

NEZ011>018-030>034-042>045-020100-
NORTHEAST NEBRASKA

CITY           SKY/WX    TMP DP  RH WIND       PRES   REMARKS
NORFOLK        PTCLDY    69  54  58 NW6       29.76R
6HR MIN TEMP:  69; 6HR MAX TEMP:  78;

ALBION         PTCLDY    69  52  54 N3        29.78R
BLAIR          PTCLDY    71  64  78 E3        29.75S
COLUMBUS *     MOCLDY    77  54  44 CALM      29.76R
FREMONT        MOCLDY    74  59  60 E3        29.75R
TEKAMAH        MOCLDY    74  61  63 SE5       29.74R
6HR MIN TEMP:  74; 6HR MAX TEMP:  80;

WAYNE          PTCLDY    70  56  61 N3        29.76R
$$

NEZ050>053-065>068-078-088>093-020100-
SOUTHEAST NEBRASKA

CITY           SKY/WX    TMP DP  RH WIND       PRES   REMARKS
LINCOLN        PTCLDY    73  61  65 E5        29.75R
6HR MIN TEMP:  70; 6HR MAX TEMP:  77;

OMAHA EPPLEY   MOCLDY    73  62  68 NE3       29.74R
6HR MIN TEMP:  71; 6HR MAX TEMP:  75;

BEATRICE       PTCLDY    72  59  64 NE6       29.73R
FALLS CITY     CLEAR     75  65  70 E6        29.71S
6HR MIN TEMP:  75; 6HR MAX TEMP:  83;

NEBRASKA CITY  PTCLDY    72  60  65 CALM      29.74R
PLATTSMOUTH      N/A     71  63  76 CALM      29.74S
$$

NEZ044-045-051>053-067-020100-
OMAHA AREA

CITY           SKY/WX    TMP DP  RH WIND       PRES   REMARKS
OMAHA EPPLEY   MOCLDY    73  62  68 NE3       29.74R
6HR MIN TEMP:  71; 6HR MAX TEMP:  75;

BLAIR          PTCLDY    71  64  78 E3        29.75S
FREMONT        MOCLDY    74  59  60 E3        29.75R
MILLARD        MOCLDY    72  65  78 CALM      29.74S
OFFUTT AFB     MOCLDY    71  68  89 N2        29.74R
PLATTSMOUTH      N/A     71  63  76 CALM      29.74S
WAHOO          FAIR      71  62  73 SE3       29.74R
$$


USA.gov is the U.S. government's official web portal to all federal, state and local government web resources and services.